{"data":{"norad_id":41774,"epoch":"2026-05-25T03:01:05.027232Z","epoch_age_seconds":63814,"freshness":"FRESH","line1":"1 41774U 16058E   26145.12575263  .00021674  00000+0  36843-3 0  9998","line2":"2 41774  96.9040 176.8746 0002658  82.0747 278.0808 15.51448926542538","mean_motion":15.51448926,"eccentricity":0.0002658,"inclination_deg":96.904,"raan_deg":176.8746,"arg_perigee_deg":82.0747,"mean_anomaly_deg":278.0808,"bstar":0.00036843,"rev_number":54253,"period_min":92.816461816288,"perigee_km":410.68989744137,"apogee_km":414.29979733144,"semimajor_km":6790.6318473864,"source":"CELESTRAK","updated_at":"2026-05-25T13:38:13.295694Z"}}